sat.trackr.live / text

‹ back to catalog

STARLINK-35754

NORAD 67054 · 2025-294AA

PAYLOAD ACTIVE UNKNOWN

§ Identity

Operator
Country
US
Launch date
2025-12-11
Launch site
AFETR
Launch vehicle
Mass (kg)
RCS (m²)

Purposes: comms

External: N2YO · Heavens-Above · Gunter

§ Orbital elements

Epoch: 2026-05-24T21:20:13.035264Z

Period
94.27 min
Inclination
43.0025°
Eccentricity
0.0001251
Mean motion
15.27591250 rev/d
Perigee alt
482.2 km
Apogee alt
483.9 km
Semi-major
6,861.2 km
B*
3.9396e-4
RAAN
327.6767°
Arg perigee
273.6637°
Mean anomaly
86.4072°
Rev number
2,645

§ Raw data

STARLINK-357541 67054U 25294AA  26144.88903976  .00010598  00000+0  39396-3 0  99962 67054  43.0025 327.6767 0001251 273.6637  86.4072 15.27591250 26450

JSON: /api/v1/satellites/67054 · /tle

For live sub-satellite position, see the globe view (requires WebGL).

§ Visibility from observer

Set your observer location to see the next 7 days of passes ≥ 10°. The values pass through the URL so the page stays shareable.

No JS? Fill the form by hand. The geolocation button needs JavaScript.